AirNav   ATP
 
 1429 users online  

28WI Rutherford Airport
Arkansaw, Wisconsin, USA

GOING TO ARKANSAW?


FAA INFORMATION EFFECTIVE 01 FEBRUARY 2018

Location

FAA Identifier: 28WI
Lat/Long: 44-36-14.8780N / 092-02-47.6200W
44-36.247967N / 092-02.793667W
44.6041328 / -92.0465611
(estimated)
Elevation: 790 ft. / 241 m (estimated)
Variation: 02E (1985)
From city: 2 miles SW of ARKANSAW, WI
Time zone: UTC -6 (UTC -5 during Daylight Saving Time)
Zip code: 54721

Airport Operations

Airport use: Private use. Permission required prior to landing
Activation date: 03/1979
Control tower: no
ARTCC: MINNEAPOLIS CENTER
FSS: GREEN BAY FLIGHT SERVICE STATION
Attendance: CONTINUOUS
Wind indicator: yes
Segmented circle: no

Airport Communications

WX AWOS-3 at RGK (19 nm W): 119.25 (715-594-3763)
WX AWOS-3 at LUM (19 nm NE): 118.025 (715-235-5342)
  • FREQ 122.9 AVBL FOR COMMUNICATIONS WITH THE ARPT.

Nearby radio navigation aids

VOR radial/distance  VOR name  Freq  Var
EAUr230/29.9EAU CLAIRE VORTAC112.9004E
ONAr334/34.9WINONA VOR/DME111.4001E

Airport Services

Runway Information

Runway 9/27

Dimensions: 3000 x 60 ft. / 914 x 18 m
Surface: turf
RUNWAY 9  RUNWAY 27
Traffic pattern: leftleft
Obstructions: pline, markedhill, 1200 ft. from runway

Airport Ownership and Management from official FAA records

Ownership: Privately-owned
Owner: NORTHERN TRAILS AVIATION
2760 23 AND 1/2 STREET
RICE LAKE, WI 54868
Phone 715-296-4018
Manager: THOM RUTHERFORD
2760 23 AND 1/2 STREET
RICE LAKE, WI 54868
Phone 715-296-4018

Airport Operational Statistics

Aircraft based on the field: 3
Single engine airplanes: 3
    

Instrument Procedures

There are no published instrument procedures at 28WI.

Some nearby airports with instrument procedures:

KRGK - Red Wing Regional Airport (19 nm W)
KLUM - Menomonie Municipal Airport-Score Field (19 nm NE)
3T3 - Boyceville Municipal Airport (26 nm N)
KEAU - Chippewa Valley Regional Airport (29 nm NE)
KONA - Winona Municipal Airport-Max Conrad Field (35 nm SE)
 
Loc | Ops | Rwys | IFR | FBO | Links
Com | Nav | Svcs | Stats | Notes

AirNav Hotels Sweepstakes
 
Area around 28WI (Rutherford Airport)
 
Road maps at: MapQuest Bing Google
 
Aerial photo
No photo
 
Sectional chart

 
Airport distance calculator
Flying to Rutherford Airport? Find the distance to fly.

From to 28WI

Sunrise and sunset
Times for 20-Feb-2018
 Local
(UTC-6)
 Zulu
(UTC)
Morning civil twilight06:3212:32
Sunrise07:0213:02
Sunset17:4223:42
Evening civil twilight18:1200:12

Current date and time
Zulu (UTC)  20-Feb-2018 23:10:14
Local (UTC-6)  20-Feb-2018 17:10:14
 
METAR
KRGK 
18nm W 
202255Z AUTO 29008KT 10SM -SN OVC023 M06/M12 A3009 RMK AO2
KLUM 
19nm NE 
202255Z AUTO 26013G17KT 10SM -SN OVC018 M06/M09 A3006 RMK AO2 T10581091
KEAU 
29nm NE 
202256Z 28009KT 10SM OVC016 M06/M09 A3004 RMK AO2 SLP187 T10611094
KONA 
36nm SE 
202255Z AUTO 30010G14KT 10SM OVC020 M05/M08 A3008 RMK AO2
TAF
NOTAMs
Click for the latest NOTAMs
NOTAMs are issued by the DoD/FAA and will open in a separate window not controlled by AirNav.

 

 
 

Would you like to see your business listed on this page?

 If your business provides an interesting product or service to pilots, flight crews, aircraft, or users of the Rutherford Airport, you should consider listing it here.  To start the listing process, click on the button below
 
Add a business
 

Other Pages about Rutherford Airport

Update a link
 
Copyright © AirNav, LLC. All rights reserved. Privacy Policy  Contact